Stations météo

réclame
Mon MeteoGroup
Saint-Quentin, France (7061): Température de l'air & dewpoint: 12.11.2019 23:00:00 - 18.11.2019 23:00:00 (CET)Saint-Quentin, France (7061): Température de l'air 5cm: 12.11.2019 23:00:00 - 18.11.2019 23:00:00 (CET)Saint-Quentin, France (7061): Température de l'air -20cm & Température de l'air -100cm: 12.11.2019 23:00:00 - 18.11.2019 23:00:00 (CET)Saint-Quentin, France (7061): Vitesse du vent & gusts: 12.11.2019 23:00:00 - 18.11.2019 23:00:00 (CET)Saint-Quentin, France (7061): Direction du vent: 12.11.2019 23:00:00 - 18.11.2019 23:00:00 (CET)Saint-Quentin, France (7061): reduced air pressure: 12.11.2019 23:00:00 - 18.11.2019 23:00:00 (CET)Saint-Quentin, France (7061): visibility: 12.11.2019 23:00:00 - 18.11.2019 23:00:00 (CET)Saint-Quentin, France (7061): Ensoleillement: 12.11.2019 23:00:00 - 18.11.2019 23:00:00 (CET)Saint-Quentin, France (7061): Quantités de précipitations: 12.11.2019 23:00:00 - 18.11.2019 23:00:00 (CET)
Date & Time tt [°C] td [°C] tt 5cm [°C] tt -20cm [°C] tt -100cm [°C] ff [km/h] ff [knt] fx [km/h] fx [knt] dd ppp [hPa] vv [km] sd [min] rr [mm]
18.11.2019 23:00:00 3,0 2,1 1,5 7,7 10,9 11 6 16 9 WNW 1016,3 13 0 0,0
18.11.2019 22:00:00 4,7 3,7 3,8 7,7 10,8 14 8 22 12 NW 1015,6 18 0 0,0
18.11.2019 21:00:00 5,5 4,5 4,2 7,7 10,9 16 8 22 12 WNW 1015,0 19 0 0,0
18.11.2019 20:00:00 5,3 4,3 4,4 7,7 10,9 14 8 27 15 WNW 1014,5 20 0 0,0
18.11.2019 19:00:00 6,4 4,4 5,6 7,6 10,9 18 10 26 14 WNW 1013,6 20 0 0,0
18.11.2019 18:00:00 6,9 5,5 6,4 7,6 10,9 16 9 27 15 NW 1013,2 18 0 0,4
18.11.2019 17:00:00 7,1 6,2 6,9 7,6 10,9 18 10 28 15 NW 1012,5 11 0 1,4
18.11.2019 16:00:00 7,1 6,4 7,0 7,5 10,9 16 9 22 12 WNW 1012,0 10 0 1,0
18.11.2019 15:00:00 7,1 6,5 7,0 7,5 10,9 11 6 16 9 W 1011,5 4,8 0 0,0
18.11.2019 14:00:00 6,4 5,8 6,2 7,5 10,9 7 4 11 6 WSW 1011,3 2,2 0 0,2
18.11.2019 13:00:00 5,7 5,1 5,7 7,5 10,9 8 4 15 8 W 1011,2 1,9 0 0,2
18.11.2019 12:00:00 5,3 4,7 5,8 7,5 11,0 10 6 14 8 W 1011,2 2,5 0 0,0
18.11.2019 11:00:00 4,7 4,1 4,2 7,5 10,9 6 4 12 7 WSW 1011,4 2,3 0 0,6
18.11.2019 10:00:00 4,0 3,3 3,9 7,5 11,0 0 0 7 4 N 1011,5 2,3 0 0,4
18.11.2019 09:00:00 3,7 2,8 3,2 7,6 11,0 6 4 11 6 W 1011,2 4,0 0 0,0
18.11.2019 08:00:00 3,2 2,3 2,7 7,6 11,0 8 4 11 6 W 1010,9 5 0 0,0
18.11.2019 07:00:00 2,7 2,0 1,9 7,6 11,0 6 4 13 7 WNW 1010,9 4,2 0 0,0
18.11.2019 06:00:00 2,3 1,6 1,1 7,6 11,0 9 5 14 8 WNW 1010,4 3,4 0 0,0
18.11.2019 05:00:00 1,9 1,2 1,2 7,7 11,0 9 5 16 9 WNW 1010,5 3,4 0 0,0
18.11.2019 04:00:00 2,0 1,1 1,5 7,7 11,0 10 5 15 8 WNW 1010,5 4,4 0 0,0
18.11.2019 03:00:00 2,4 1,4 1,7 7,7 11,0 7 4 14 7 NW 1010,4 4,5 0 0,0
18.11.2019 02:00:00 2,8 1,6 2,2 7,8 11,0 6 4 13 7 NW 1010,4 5 0 0,0
18.11.2019 01:00:00 2,9 1,6 2,2 7,8 11,0 8 4 13 7 NW 1010,5 7 0 0,0
18.11.2019 00:00:00 3,3 1,7 2,6 7,8 11,1 10 6 15 8 NNW 1010,4 10 0 0,0
17.11.2019 23:00:00 3,9 2,1 3,3 7,8 11,0 10 5 18 10 NNW 1010,4 13 0 0,0
17.11.2019 22:00:00 4,0 2,0 2,9 7,9 11,1 10 5 18 10 NNW 1010,7 16 0 0,0
17.11.2019 21:00:00 3,9 1,9 2,5 7,8 11,1 9 5 17 9 NNW 1010,7 20 0 0,0
17.11.2019 20:00:00 4,1 2,1 3,4 7,8 11,1 13 7 19 10 N 1010,4 20 0 0,0
17.11.2019 19:00:00 4,3 2,5 3,5 7,8 11,1 8 4 21 11 N 1010,2 20 0 0,0
17.11.2019 18:00:00 4,8 3,0 4,1 7,7 11,1 8 4 14 8 N 1010,3 20 0 0,0
17.11.2019 17:00:00 5,5 3,3 4,6 7,7 11,1 6 4 18 10 N 1010,2 20 18 0,0
17.11.2019 16:00:00 6,2 3,4 6,1 7,7 11,1 11 6 18 10 N 1010,2 20 0 0,0
17.11.2019 15:00:00 6,9 3,7 7,8 7,7 11,1 14 7 19 11 NNE 1010,2 19 31 0,0
17.11.2019 14:00:00 7,4 4,0 10,2 7,7 11,1 13 7 19 10 NNE 1010,1 19 60 0,0
17.11.2019 13:00:00 6,7 3,7 8,6 7,7 11,1 14 7 18 10 NNE 1010,3 19 52 0,0
17.11.2019 12:00:00 6,0 3,3 10,1 7,7 11,1 9 5 14 7 N 1010,5 17 60 0,0
17.11.2019 11:00:00 4,5 2,4 8,4 7,8 11,1 4 2 8 4 NNE 1011,0 17 60 0,0
17.11.2019 10:00:00 2,7 1,7 0,3 7,8 11,2 4 2 6 4 ENE 1011,1 11 60 0,0
17.11.2019 09:00:00 0,7 0,1 -2,5 7,9 11,2 3 2 10 5 ENE 1011,5 5 31 0,0
17.11.2019 08:00:00 -0,3 -1,0 -2,5 7,9 11,2 6 4 11 6 E 1011,4 3,7 0 0,0
17.11.2019 07:00:00 0,3 -0,4 -1,4 7,9 11,2 8 4 10 5 E 1010,9 7 0 0,0
17.11.2019 06:00:00 1,9 1,2 -0,2 8,0 11,2 8 5 12 6 E 1010,7 9 0 0,0
17.11.2019 05:00:00 2,6 1,7 2,2 8,0 11,2 9 5 13 7 ENE 1010,4 12 0 0,0
17.11.2019 04:00:00 2,5 1,9 0,1 8,0 11,2 9 5 11 6 E 1010,4 9 0 0,0
17.11.2019 03:00:00 1,7 1,1 -1,9 8,0 11,3 9 5 11 6 E 1010,8 8 0 0,0
17.11.2019 02:00:00 2,5 1,8 -1,5 8,0 11,3 6 3 10 5 E 1010,7 11 0 0,0
17.11.2019 01:00:00 3,2 2,0 1,1 8,0 11,3 6 3 10 5 NE 1010,8 20 0 0,0
17.11.2019 00:00:00 3,6 2,6 1,9 8,1 11,3 8 4 11 6 SSE 1010,9 20 0 0,0
16.11.2019 23:00:00 4,6 3,3 4,1 8,0 11,3 7 4 9 5 SE 1010,8 20 0 0,0
16.11.2019 22:00:00 4,8 3,1 4,1 8,0 11,3 2 1 7 4 SE 1010,6 20 0 0,0
16.11.2019 21:00:00 5,0 3,3 4,4 8,0 11,3 8 4 9 5 SSE 1010,4 20 0 0,0
16.11.2019 20:00:00 5,3 3,5 4,8 8,0 11,3 7 4 10 5 SSE 1010,0 20 0 0,0
16.11.2019 19:00:00 5,2 3,7 4,9 8,0 11,3 6 3 8 5 SSE 1009,8 20 0 0,0
16.11.2019 18:00:00 5,3 3,8 5,0 7,9 11,3 5 3 8 4 SE 1009,0 20 0 0,0
16.11.2019 17:00:00 5,5 3,7 5,3 7,9 11,4 5 3 11 6 SE 1008,6 20 0 0,0
16.11.2019 16:00:00 5,8 3,5 5,9 7,9 11,3 8 4 22 12 SSE 1008,4 20 0 0,0
16.11.2019 15:00:00 6,1 3,4 6,4 7,9 11,4 14 7 23 12 SSE 1007,7 20 0 0,0
16.11.2019 14:00:00 6,3 3,3 7,4 7,9 11,4 20 11 27 15 S 1007,2 20 16 0,0
16.11.2019 13:00:00 6,0 3,5 6,4 7,9 11,4 16 9 23 12 SSE 1007,1 20 22 0,0
16.11.2019 12:00:00 4,8 3,5 4,4 7,9 11,4 16 9 22 12 SE 1007,5 20 0 0,0
16.11.2019 11:00:00 3,7 2,5 3,8 7,9 11,4 13 7 21 11 SE 1007,5 15 0 0,0
16.11.2019 10:00:00 3,4 2,2 3,1 7,9 11,4 14 8 22 12 ESE 1007,2 19 0 0,0
16.11.2019 09:00:00 2,9 1,7 2,5 8,0 11,4 14 8 19 11 ESE 1006,4 19 0 0,0
16.11.2019 08:00:00 2,4 1,4 2,1 8,0 11,4 11 6 20 11 ESE 1005,7 19 0 0,0
16.11.2019 07:00:00 2,0 1,0 2,0 8,0 11,4 14 8 22 12 ESE 1004,8 17 0 0,0
16.11.2019 06:00:00 1,9 1,0 1,7 8,0 11,4 16 9 26 14 ESE 1004,3 14 0 0,0
16.11.2019 05:00:00 1,8 0,9 1,6 8,1 11,4 18 10 25 14 ESE 1004,0 11 0 0,0
16.11.2019 04:00:00 2,3 1,3 2,0 8,1 11,4 17 9 24 13 ESE 1003,5 16 0 0,0
16.11.2019 03:00:00 2,4 1,5 1,9 8,1 11,4 18 10 24 13 ESE 1003,5 18 0 0,0
16.11.2019 02:00:00 3,5 2,5 3,2 8,1 11,4 15 8 23 12 E 1003,1 20 0 0,0
16.11.2019 01:00:00 3,8 2,3 3,1 8,1 11,5 15 8 23 12 SE 1002,5 20 0 0,0
16.11.2019 00:00:00 3,7 2,2 3,1 8,2 11,5 11 6 33 18 SE 1002,2 20 0 0,0
15.11.2019 23:00:00 3,9 2,4 2,6 8,2 11,5 21 11 31 17 SE 1001,8 20 0 0,0
15.11.2019 22:00:00 3,8 2,2 3,2 8,2 11,5 19 10 30 16 SE 1001,2 20 0 0,0
15.11.2019 21:00:00 4,1 2,4 3,4 8,2 11,5 21 11 32 18 SE 1000,9 20 0 0,0
15.11.2019 20:00:00 3,9 2,3 3,2 8,3 11,5 17 9 35 19 SE 1000,5 20 0 0,0
15.11.2019 19:00:00 3,5 2,3 3,0 8,3 11,5 18 10 28 15 SE 1000,0 20 0 0,0
15.11.2019 18:00:00 3,2 2,2 2,7 8,4 11,5 19 10 31 17 SSE 999,3 20 0 0,0
15.11.2019 17:00:00 2,7 1,8 2,6 8,4 11,5 16 9 26 14 SE 998,8 19 0 0,2
15.11.2019 16:00:00 2,4 1,8 1,3 8,5 11,5 13 7 18 10 ESE 998,7 11 0 0,2
15.11.2019 15:00:00 1,0 0,3 0,8 8,5 11,6 10 5 18 10 E 998,4 3,9 0 2,3
15.11.2019 14:00:00 2,1 1,1 2,1 8,5 11,5 18 10 25 13 ESE 998,3 4,1 0 1,6
15.11.2019 13:00:00 3,7 2,7 3,3 8,5 11,6 14 8 29 15 ENE 998,4 3,2 0 1,6
15.11.2019 12:00:00 3,7 2,7 3,5 8,5 11,6 19 11 30 16 ENE 998,3 3,5 0 1,8
15.11.2019 11:00:00 4,0 2,8 3,8 8,5 11,6 19 11 41 22 NNE 997,7 3,8 0 0,4
15.11.2019 10:00:00 4,3 3,0 4,1 8,5 11,6 24 13 36 19 N 997,8 7 0 0,2
15.11.2019 09:00:00 4,4 3,2 4,3 8,6 11,6 14 7 22 12 NNE 998,8 12 0 0,0
15.11.2019 08:00:00 4,5 3,0 4,3 8,6 11,6 11 6 31 17 NNE 998,8 14 0 0,0
15.11.2019 07:00:00 4,5 3,2 4,5 8,6 11,6 19 10 33 18 N 997,9 9 0 0,0
15.11.2019 06:00:00 4,5 3,0 4,4 8,7 11,6 21 11 34 18 N 998,1 10 0 0,0
15.11.2019 05:00:00 4,5 3,2 4,2 8,6 11,6 22 12 36 20 N 998,5 9 0 0,0
15.11.2019 04:00:00 4,3 3,1 4,0 8,7 11,6 17 9 30 16 N 998,9 9 0 0,0
15.11.2019 03:00:00 4,3 3,3 4,0 8,7 11,6 16 9 27 14 N 999,4 13 0 0,0
15.11.2019 02:00:00 4,1 3,1 3,7 8,7 11,6 14 8 21 12 N 1000,2 15 0 0,0
15.11.2019 01:00:00 3,9 2,9 3,6 8,8 11,7 9 5 16 8 NNE 1001,0 18 0 0,0
15.11.2019 00:00:00 3,9 2,7 3,6 8,8 11,6 11 6 16 9 NE 1001,0 20 0 0,0
14.11.2019 23:00:00 4,0 3,1 3,0 8,8 11,6 11 6 16 8 NE 1001,5 18 0 0,0
14.11.2019 22:00:00 3,6 2,7 2,9 8,8 11,7 8 4 12 6 NE 1001,6 19 0 0,0
14.11.2019 21:00:00 4,2 3,3 3,4 8,9 11,7 6 3 14 7 ENE 1002,1 18 0 0,0
14.11.2019 20:00:00 4,0 3,3 2,6 8,8 11,7 11 6 14 8 ENE 1001,0 16 0 0,0
14.11.2019 19:00:00 4,7 3,5 3,0 8,8 11,7 10 5 15 8 E 1001,3 20 0 0,0
14.11.2019 18:00:00 4,4 3,1 3,0 8,8 11,7 9 5 15 8 E 1000,5 20 0 0,0
14.11.2019 17:00:00 5,2 3,4 4,4 8,8 11,7 10 5 16 9 SE 1000,5 20 0 0,0
14.11.2019 16:00:00 6,0 3,0 6,0 8,7 11,7 10 6 22 12 SE 999,9 20 8 0,0
14.11.2019 15:00:00 6,6 2,9 7,1 8,8 11,7 17 9 24 13 S 999,4 20 20 0,0
14.11.2019 14:00:00 6,6 2,9 6,9 8,7 11,7 16 9 32 17 S 999,3 20 0 0,0
14.11.2019 13:00:00 6,5 3,6 6,8 8,7 11,7 19 10 30 16 S 999,1 20 1 0,0
14.11.2019 12:00:00 6,5 3,5 6,6 8,7 11,7 21 11 32 17 S 999,0 20 7 0,0
14.11.2019 11:00:00 6,2 4,0 6,1 8,7 11,7 19 10 29 16 S 998,8 20 29 0,0
14.11.2019 10:00:00 5,6 4,1 5,0 8,8 11,7 18 10 25 13 S 998,2 20 32 0,0
14.11.2019 09:00:00 5,0 4,0 4,3 8,8 11,8 13 7 23 12 S 997,2 11 0 0,2
14.11.2019 08:00:00 4,5 3,6 4,0 8,8 11,7 15 8 27 15 SSE 996,3 20 0 0,0
14.11.2019 07:00:00 4,2 3,3 3,7 8,9 11,8 18 10 32 18 SSE 995,4 20 0 0,4
14.11.2019 06:00:00 4,1 2,9 3,7 8,9 11,8 24 13 40 22 SSE 994,7 16 0 1,0
14.11.2019 05:00:00 4,5 3,2 4,0 8,9 11,8 23 13 50 27 SSE 994,4 14 0 1,4
14.11.2019 04:00:00 4,9 3,6 4,4 8,9 11,8 28 15 42 23 SSE 994,1 11 0 1,2
14.11.2019 03:00:00 5,2 3,2 4,7 8,9 11,8 25 13 37 20 SE 994,9 18 0 0,0
14.11.2019 02:00:00 5,2 3,4 4,8 9,0 11,8 22 12 34 18 SE 995,5 20 0 0,0
14.11.2019 01:00:00 5,2 3,7 4,3 9,0 11,8 22 12 31 17 SE 996,5 20 0 0,0
14.11.2019 00:00:00 5,0 3,7 4,1 9,0 11,8 21 12 33 18 SSE 997,2 20 0 0,0
13.11.2019 23:00:00 5,1 3,8 4,3 9,0 11,8 20 11 29 16 SSE 998,1 20 0 0,0
13.11.2019 22:00:00 5,5 4,3 4,6 9,0 11,9 18 10 27 15 SSE 999,0 20 0 0,0
13.11.2019 21:00:00 5,6 4,6 4,7 9,0 11,8 16 9 27 14 S 999,9 20 0 0,0
13.11.2019 20:00:00 5,8 4,3 5,0 9,0 11,9 16 9 26 14 S 1000,5 20 0 0,2
13.11.2019 19:00:00 6,4 5,2 4,7 9,0 11,9 18 10 26 14 S 1001,2 20 0 0,0
13.11.2019 18:00:00 5,6 4,6 3,7 8,9 11,9 11 6 14 7 SSE 1001,6 20 0 0,0
13.11.2019 17:00:00 6,8 4,6 6,0 8,9 11,9 11 6 22 12 SSW 1002,1 20 0 0,0
13.11.2019 16:00:00 7,4 5,0 7,0 8,8 11,9 14 8 29 16 S 1002,1 18 16 0,0
13.11.2019 15:00:00 8,5 5,6 8,6 8,9 11,9 15 8 30 16 SW 1002,2 20 11 0,0
13.11.2019 14:00:00 8,7 5,4 9,4 8,8 11,9 17 9 27 15 SW 1002,6 20 12 0,0
13.11.2019 13:00:00 9,1 6,0 9,2 8,8 11,9 19 10 25 14 SW 1003,0 20 13 0,0
13.11.2019 12:00:00 8,0 6,0 7,5 8,8 12,0 14 8 18 10 SW 1003,4 20 15 0,0
13.11.2019 11:00:00 6,9 6,0 6,2 8,8 12,0 10 5 15 8 SW 1003,8 16 0 0,0
13.11.2019 10:00:00 5,7 5,0 5,4 8,8 11,9 9 5 14 7 SW 1003,7 13 0 0,0
13.11.2019 09:00:00 5,0 4,4 3,5 8,8 11,9 10 6 18 10 WSW 1003,1 14 0 0,0
13.11.2019 08:00:00 4,5 3,9 1,9 8,9 12,0 9 5 14 8 WSW 1002,8 9 0 0,0
13.11.2019 07:00:00 4,0 3,3 1,7 8,8 12,0 3 2 16 9 SW 1002,6 4,9 0 0,0
13.11.2019 06:00:00 4,8 4,2 4,1 8,9 12,0 10 5 14 8 SSW 1002,2 11 0 0,0
13.11.2019 05:00:00 5,0 4,3 4,6 8,9 12,0 8 5 23 12 SW 1001,8 14 0 0,0
13.11.2019 04:00:00 4,8 4,1 3,8 8,9 12,0 11 6 21 11 SW 1001,5 18 0 0,0
13.11.2019 03:00:00 4,5 3,6 3,8 8,9 12,0 14 8 26 14 SW 1001,3 18 0 0,0
13.11.2019 02:00:00 4,6 3,6 3,5 9,0 12,0 19 10 29 16 WSW 1001,1 20 0 0,2
13.11.2019 01:00:00 4,3 3,3 3,7 9,0 12,0 14 7 25 13 SSW 1001,3 20 0 0,0
13.11.2019 00:00:00 4,4 3,2 3,7 9,0 12,0 17 9 23 13 SSW 1001,2 20 0 0,0
12.11.2019 23:00:00 4,3 3,0 3,7 9,0 12,0 18 10 28 15 SW 1001,2 20 0 0,2

tt = Température de l'air
td = dewpoint
tt 5cm = Température de l'air 5cm
tt -20cm = Température de l'air -20cm
tt -100cm = Température de l'air -100cm
ff = Vitesse du vent
fx = gusts
dd = Direction du vent
ppp = reduced air pressure
vv = visibility
sd = Ensoleillement
rr = Quantités de précipitations

stations d'obs. à proximité